START_TIME,STEP,MOV.,A46,t_acc.,A13,t_acc.,M47,t_acc.,A17,t_acc.,A28,t_acc.,M38,t_acc.
1979-07-03 12:00:26.370 ,0,0,,0,8.,4.8,0.,4.8,,0,0.,4.8,0.,4.8
1979-07-03 12:00:31.170 ,0,0,,0,6.,4.8,0.,4.8,,0,0.,4.8,0.,4.8
1979-07-03 12:00:35.970 ,0,0,,0,5.,4.8,0.,4.8,,0,0.,4.8,0.,4.8
1979-07-03 12:00:40.770 ,0,0,,0,0.,4.8,0.,4.8,,0,0.,4.8,0.,4.8
1979-07-03 12:00:45.570 ,0,0,,0,0.,4.8,0.,4.8,,0,0.,4.8,0.,4.8
1979-07-03 12:00:50.370 ,1,0,,0,0.,4.8,0.,4.8,,0,0.,4.8,0.,4.8
1979-07-03 12:00:55.170 ,1,0,,0,1.,4.8,0.,4.8,,0,0.,4.8,0.,4.8
1979-07-03 12:00:59.970 ,1,0,,0,1.,4.8,0.,4.8,,0,0.,4.8,0.,4.8
1979-07-03 12:01:04.770 ,1,0,,0,5.,4.8,0.,4.8,,0,0.,4.8,1.,4.8
1979-07-03 12:01:09.570 ,1,0,,0,5.,4.8,0.,4.8,,0,0.,4.8,0.,4.8
1979-07-03 12:01:14.360 ,1,0,,0,6.,4.8,0.,4.8,,0,0.,4.8,0.,4.8
1979-07-03 12:01:19.170 ,1,0,,0,7.,4.8,0.,4.8,,0,0.,4.8,0.,4.8
1979-07-03 12:01:23.970 ,1,0,,0,4.,4.8,0.,4.8,,0,0.,4.8,0.,4.8
1979-07-03 12:01:28.770 ,1,0,,0,0.,4.8,0.,4.8,,0,0.,4.8,1.,4.8
1979-07-03 12:01:33.570 ,1,0,,0,0.,4.8,0.,4.8,,0,0.,4.8,1.,4.8
1979-07-03 12:01:38.360 ,2,0,,0,0.,4.8,1.,4.8,,0,0.,4.8,0.,4.8
1979-07-03 12:01:43.170 ,2,0,,0,0.,4.8,0.,4.8,,0,0.,4.8,0.,4.8
1979-07-03 12:01:47.970 ,2,0,,0,2.,4.8,0.,4.8,,0,0.,4.8,0.,4.8
1979-07-03 12:01:52.770 ,2,0,,0,5.,4.8,0.,4.8,,0,0.,4.8,0.,4.8
1979-07-03 12:01:57.570 ,2,0,,0,4.,4.8,0.,4.8,,0,0.,4.8,1.,4.8
1979-07-03 12:02:02.360 ,2,0,,0,4.,4.8,0.,4.8,,0,0.,4.8,1.,4.8
1979-07-03 12:02:07.170 ,2,0,,0,10.,4.8,1.,4.8,,0,0.,4.8,0.,4.8
1979-07-03 12:02:11.970 ,2,0,,0,7.,4.8,0.,4.8,,0,0.,4.8,0.,4.8
1979-07-03 12:02:16.770 ,2,0,,0,0.,4.8,0.,4.8,,0,0.,4.8,0.,4.8
1979-07-03 12:02:21.570 ,2,0,,0,0.,4.8,0.,4.8,,0,0.,4.8,0.,4.8
1979-07-03 12:02:26.370 ,3,0,,0,0.,4.8,0.,4.8,,0,0.,4.8,1.,4.8
1979-07-03 12:02:31.170 ,3,0,,0,0.,4.8,0.,4.8,,0,0.,4.8,0.,4.8
1979-07-03 12:02:35.970 ,3,0,,0,2.,4.8,0.,4.8,,0,0.,4.8,3.,4.8
1979-07-03 12:02:40.770 ,3,0,,0,13.,4.8,0.,4.8,,0,0.,4.8,2.,4.8
1979-07-03 12:02:45.570 ,3,0,,0,18.,4.8,1.,4.8,,0,0.,4.8,1.,4.8
1979-07-03 12:02:50.370 ,3,0,,0,14.,4.8,0.,4.8,,0,0.,4.8,3.,4.8
1979-07-03 12:02:55.170 ,3,0,,0,20.,4.8,1.,4.8,,0,0.,4.8,4.,4.8
1979-07-03 12:02:59.970 ,3,0,,0,12.,4.8,1.,4.8,,0,0.,4.8,2.,4.8
1979-07-03 12:03:04.770 ,3,0,,0,0.,4.8,0.,4.8,,0,0.,4.8,0.,4.8
1979-07-03 12:03:09.570 ,3,0,,0,0.,4.8,0.,4.8,,0,0.,4.8,4.,4.8
1979-07-03 12:03:14.370 ,4,0,,0,0.,4.8,1.,4.8,,0,0.,4.8,2.,4.8
1979-07-03 12:03:19.170 ,4,0,,0,0.,4.8,0.,4.8,,0,0.,4.8,2.,4.8
1979-07-03 12:03:23.970 ,4,0,,0,4.,4.8,0.,4.8,,0,0.,4.8,1.,4.8
1979-07-03 12:03:28.770 ,4,0,,0,15.,4.8,1.,4.8,,0,0.,4.8,4.,4.8
1979-07-03 12:03:33.570 ,4,0,,0,21.,4.8,0.,4.8,,0,0.,4.8,5.,4.8
1979-07-03 12:03:38.370 ,4,0,,0,18.,4.8,0.,4.8,,0,0.,4.8,1.,4.8
1979-07-03 12:03:43.170 ,4,0,,0,10.,4.8,1.,4.8,,0,0.,4.8,3.,4.8
1979-07-03 12:03:47.970 ,4,0,,0,10.,4.8,0.,4.8,,0,0.,4.8,3.,4.8
1979-07-03 12:03:52.770 ,4,0,,0,0.,4.8,0.,4.8,,0,0.,4.8,3.,4.8
1979-07-03 12:03:57.570 ,4,0,,0,0.,4.8,0.,4.8,,0,0.,4.8,3.,4.8
1979-07-03 12:04:02.370 ,5,0,,0,0.,4.8,0.,4.8,,0,0.,4.8,7.,4.8
1979-07-03 12:04:07.170 ,5,0,,0,0.,4.8,0.,4.8,,0,0.,4.8,8.,4.8
1979-07-03 12:04:11.970 ,5,0,,0,4.,4.8,0.,4.8,,0,0.,4.8,2.,4.8
1979-07-03 12:04:16.770 ,5,0,,0,19.,4.8,0.,4.8,,0,0.,4.8,7.,4.8
1979-07-03 12:04:21.570 ,5,0,,0,36.,4.8,0.,4.8,,0,0.,4.8,5.,4.8
1979-07-03 12:04:26.360 ,5,0,,0,32.,4.8,2.,4.8,,0,0.,4.8,3.,4.8
1979-07-03 12:04:31.170 ,5,0,,0,24.,4.8,1.,4.8,,0,0.,4.8,5.,4.8
1979-07-03 12:04:35.960 ,5,0,,0,17.,4.8,2.,4.8,,0,0.,4.8,2.,4.8
1979-07-03 12:04:40.770 ,5,0,,0,0.,4.8,0.,4.8,,0,0.,4.8,5.,4.8
1979-07-03 12:04:45.570 ,5,0,,0,0.,4.8,0.,4.8,,0,0.,4.8,8.,4.8
1979-07-03 12:04:50.360 ,6,0,,0,1.,4.8,0.,4.8,,0,0.,4.8,2.,4.8
1979-07-03 12:04:55.160 ,6,0,,0,0.,4.8,0.,4.8,,0,0.,4.8,6.,4.8
1979-07-03 12:04:59.960 ,6,0,,0,3.,4.8,0.,4.8,,0,0.,4.8,3.,4.8
1979-07-03 12:05:04.760 ,6,0,,0,19.,4.8,0.,4.8,,0,0.,4.8,0.,4.8
1979-07-03 12:05:09.570 ,6,0,,0,17.,4.8,1.,4.8,,0,0.,4.8,6.,4.8
1979-07-03 12:05:14.360 ,6,0,,0,23.,4.8,1.,4.8,,0,0.,4.8,2.,4.8
1979-07-03 12:05:19.170 ,6,0,,0,15.,4.8,0.,4.8,,0,0.,4.8,5.,4.8
1979-07-03 12:05:23.960 ,6,0,,0,8.,4.8,0.,4.8,,0,0.,4.8,4.,4.8
1979-07-03 12:05:28.760 ,6,0,,0,0.,4.8,0.,4.8,,0,1.,4.8,2.,4.8
1979-07-03 12:05:33.570 ,6,0,,0,0.,4.8,0.,4.8,,0,0.,4.8,3.,4.8
1979-07-03 12:05:38.360 ,7,0,,0,0.,4.8,0.,4.8,,0,0.,4.8,6.,4.8
1979-07-03 12:05:43.170 ,7,0,,0,0.,4.8,0.,4.8,,0,0.,4.8,2.,4.8
1979-07-03 12:05:47.960 ,7,0,,0,3.,4.8,0.,4.8,,0,0.,4.8,0.,4.8
1979-07-03 12:05:52.760 ,7,0,,0,20.,4.8,0.,4.8,,0,0.,4.8,0.,4.8
1979-07-03 12:05:57.570 ,7,0,,0,9.,4.8,0.,4.8,,0,0.,4.8,1.,4.8
1979-07-03 12:06:02.360 ,7,0,,0,15.,4.8,0.,4.8,,0,0.,4.8,1.,4.8
1979-07-03 12:06:07.160 ,7,0,,0,16.,4.8,0.,4.8,,0,0.,4.8,1.,4.8
1979-07-03 12:06:11.960 ,7,0,,0,17.,4.8,1.,4.8,,0,0.,4.8,0.,4.8
1979-07-03 12:06:16.760 ,7,0,,0,0.,4.8,0.,4.8,,0,0.,4.8,0.,4.8
1979-07-03 12:06:21.570 ,7,0,,0,0.,4.8,0.,4.8,,0,0.,4.8,0.,4.8
1979-07-03 12:06:26.360 ,7,0,,0,0.,4.8,0.,4.8,,0,0.,4.8,0.,4.8
1979-07-03 12:06:31.170 ,7,0,,0,0.,4.8,0.,4.8,,0,0.,4.8,0.,4.8
1979-07-03 12:06:35.960 ,7,0,,0,2.,4.8,0.,4.8,,0,0.,4.8,0.,4.8
1979-07-03 12:06:40.760 ,7,0,,0,17.,4.8,0.,4.8,,0,0.,4.8,0.,4.8
1979-07-03 12:06:45.570 ,7,0,,0,13.,4.8,0.,4.8,,0,0.,4.8,0.,4.8
1979-07-03 12:06:50.360 ,7,0,,0,20.,4.8,0.,4.8,,0,0.,4.8,1.,4.8
1979-07-03 12:06:55.160 ,7,0,,0,17.,4.8,0.,4.8,,0,0.,4.8,0.,4.8
1979-07-03 12:06:59.960 ,7,0,,0,12.,4.8,0.,4.8,,0,0.,4.8,0.,4.8
1979-07-03 12:07:04.760 ,7,0,,0,0.,4.8,0.,4.8,,0,0.,4.8,1.,4.8
1979-07-03 12:07:09.570 ,7,0,,0,0.,4.8,0.,4.8,,0,0.,4.8,0.,4.8
1979-07-03 12:07:14.360 ,6,0,,0,0.,4.8,0.,4.8,,0,0.,4.8,0.,4.8
1979-07-03 12:07:19.170 ,6,0,,0,0.,4.8,1.,4.8,,0,0.,4.8,0.,4.8
1979-07-03 12:07:23.960 ,6,0,,0,3.,4.8,0.,4.8,,0,0.,4.8,2.,4.8
1979-07-03 12:07:28.760 ,6,0,,0,14.,4.8,1.,4.8,,0,0.,4.8,3.,4.8
1979-07-03 12:07:33.570 ,6,0,,0,16.,4.8,0.,4.8,,0,0.,4.8,3.,4.8
1979-07-03 12:07:38.360 ,6,0,,0,16.,4.8,1.,4.8,,0,0.,4.8,2.,4.8
1979-07-03 12:07:43.160 ,6,0,,0,18.,4.8,1.,4.8,,0,0.,4.8,2.,4.8
1979-07-03 12:07:47.960 ,6,0,,0,9.,4.8,0.,4.8,,0,0.,4.8,3.,4.8
1979-07-03 12:07:52.760 ,6,0,,0,0.,4.8,0.,4.8,,0,0.,4.8,5.,4.8
1979-07-03 12:07:57.570 ,6,0,,0,0.,4.8,0.,4.8,,0,0.,4.8,3.,4.8
1979-07-03 12:08:02.360 ,5,0,,0,0.,4.8,0.,4.8,,0,0.,4.8,8.,4.8
1979-07-03 12:08:07.160 ,5,0,,0,0.,4.8,0.,4.8,,0,0.,4.8,2.,4.8
1979-07-03 12:08:11.960 ,5,0,,0,2.,4.8,0.,4.8,,0,0.,4.8,9.,4.8
1979-07-03 12:08:16.760 ,5,0,,0,20.,4.8,0.,4.8,,0,0.,4.8,8.,4.8
1979-07-03 12:08:21.570 ,5,0,,0,24.,4.8,0.,4.8,,0,0.,4.8,1.,4.8
1979-07-03 12:08:26.360 ,5,0,,0,26.,4.8,0.,4.8,,0,0.,4.8,4.,4.8
1979-07-03 12:08:31.170 ,5,0,,0,19.,4.8,1.,4.8,,0,0.,4.8,4.,4.8
1979-07-03 12:08:35.970 ,5,0,,0,16.,4.8,0.,4.8,,0,0.,4.8,4.,4.8
1979-07-03 12:08:40.770 ,5,0,,0,0.,4.8,0.,4.8,,0,0.,4.8,4.,4.8
1979-07-03 12:08:45.570 ,5,0,,0,0.,4.8,0.,4.8,,0,0.,4.8,5.,4.8
1979-07-03 12:08:50.360 ,4,0,,0,0.,4.8,0.,4.8,,0,0.,4.8,4.,4.8
1979-07-03 12:08:55.160 ,4,0,,0,0.,4.8,0.,4.8,,0,0.,4.8,3.,4.8
1979-07-03 12:08:59.970 ,4,0,,0,6.,4.8,0.,4.8,,0,0.,4.8,3.,4.8
1979-07-03 12:09:04.770 ,4,0,,0,17.,4.8,2.,4.8,,0,0.,4.8,4.,4.8
1979-07-03 12:09:09.570 ,4,0,,0,18.,4.8,1.,4.8,,0,0.,4.8,5.,4.8
1979-07-03 12:09:14.360 ,4,0,,0,18.,4.8,2.,4.8,,0,0.,4.8,3.,4.8
1979-07-03 12:09:19.160 ,4,0,,0,16.,4.8,0.,4.8,,0,0.,4.8,4.,4.8
1979-07-03 12:09:23.970 ,4,0,,0,23.,4.8,0.,4.8,,0,0.,4.8,6.,4.8
1979-07-03 12:09:28.770 ,4,0,,0,0.,4.8,0.,4.8,,0,0.,4.8,3.,4.8
1979-07-03 12:09:33.570 ,4,0,,0,1.,4.8,0.,4.8,,0,0.,4.8,2.,4.8
1979-07-03 12:09:38.360 ,3,0,,0,0.,4.8,0.,4.8,,0,0.,4.8,6.,4.8
1979-07-03 12:09:43.160 ,3,0,,0,0.,4.8,0.,4.8,,0,0.,4.8,3.,4.8
1979-07-03 12:09:47.970 ,3,0,,0,5.,4.8,0.,4.8,,0,0.,4.8,3.,4.8
1979-07-03 12:09:52.770 ,3,0,,0,16.,4.8,0.,4.8,,0,0.,4.8,2.,4.8
1979-07-03 12:09:57.570 ,3,0,,0,17.,4.8,2.,4.8,,0,0.,4.8,3.,4.8
1979-07-03 12:10:02.360 ,3,0,,0,21.,4.8,1.,4.8,,0,0.,4.8,2.,4.8
1979-07-03 12:10:07.160 ,3,0,,0,18.,4.8,1.,4.8,,0,0.,4.8,3.,4.8
1979-07-03 12:10:11.970 ,3,0,,0,13.,4.8,0.,4.8,,0,0.,4.8,0.,4.8
1979-07-03 12:10:16.770 ,3,0,,0,0.,4.8,0.,4.8,,0,0.,4.8,3.,4.8
1979-07-03 12:10:21.570 ,3,0,,0,0.,4.8,0.,4.8,,0,0.,4.8,3.,4.8
1979-07-03 12:10:26.360 ,2,0,,0,0.,4.8,0.,4.8,,0,0.,4.8,1.,4.8
1979-07-03 12:10:31.160 ,2,0,,0,0.,4.8,0.,4.8,,0,0.,4.8,3.,4.8
1979-07-03 12:10:35.970 ,2,0,,0,0.,4.8,0.,4.8,,0,0.,4.8,0.,4.8
1979-07-03 12:10:40.770 ,2,0,,0,7.,4.8,0.,4.8,,0,0.,4.8,0.,4.8
1979-07-03 12:10:45.570 ,2,0,,0,8.,4.8,0.,4.8,,0,0.,4.8,0.,4.8
1979-07-03 12:10:50.360 ,2,0,,0,3.,4.8,0.,4.8,,0,0.,4.8,0.,4.8
1979-07-03 12:10:55.160 ,2,0,,0,7.,4.8,0.,4.8,,0,0.,4.8,0.,4.8
1979-07-03 12:10:59.960 ,2,0,,0,4.,4.8,0.,4.8,,0,0.,4.8,0.,4.8
1979-07-03 12:11:04.770 ,2,0,,0,0.,4.8,0.,4.8,,0,0.,4.8,0.,4.8
1979-07-03 12:11:09.570 ,2,0,,0,0.,4.8,0.,4.8,,0,0.,4.8,1.,4.8
1979-07-03 12:12:02.360 ,0,0,,0,0.,4.8,0.,4.8,,0,0.,4.8,0.,4.8
1979-07-03 12:12:07.160 ,0,0,,0,0.,4.8,0.,4.8,,0,0.,4.8,0.,4.8
1979-07-03 12:12:11.970 ,0,0,,0,1.,4.8,0.,4.8,,0,0.,4.8,0.,4.8
1979-07-03 12:12:16.770 ,0,0,,0,3.,4.8,0.,4.8,,0,0.,4.8,1.,4.8
1979-07-03 12:12:21.570 ,0,0,,0,3.,4.8,0.,4.8,,0,0.,4.8,0.,4.8
1979-07-03 12:12:26.360 ,0,0,,0,3.,4.8,0.,4.8,,0,0.,4.8,0.,4.8
1979-07-03 12:12:31.160 ,0,0,,0,4.,4.8,0.,4.8,,0,0.,4.8,0.,4.8
1979-07-03 12:12:35.970 ,0,0,,0,5.,4.8,0.,4.8,,0,0.,4.8,0.,4.8
1979-07-03 12:12:40.770 ,0,0,,0,0.,4.8,0.,4.8,,0,0.,4.8,0.,4.8
1979-07-03 12:12:45.570 ,0,0,,0,0.,4.8,0.,4.8,,0,0.,4.8,0.,4.8
1979-07-03 12:12:50.360 ,0,0,,0,0.,4.8,0.,4.8,,0,0.,4.8,0.,4.8
1979-07-03 12:12:55.160 ,0,0,,0,0.,4.8,0.,4.8,,0,0.,4.8,0.,4.8
1979-07-03 12:12:59.960 ,0,0,,0,1.,4.8,0.,4.8,,0,0.,4.8,0.,4.8
1979-07-03 12:13:04.760 ,0,0,,0,3.,4.8,0.,4.8,,0,0.,4.8,0.,4.8
1979-07-03 12:13:09.560 ,0,0,,0,3.,4.8,0.,4.8,,0,0.,4.8,0.,4.8
1979-07-03 12:13:14.360 ,0,0,,0,7.,4.8,0.,4.8,,0,0.,4.8,0.,4.8
1979-07-03 12:13:19.160 ,0,0,,0,4.,4.8,0.,4.8,,0,0.,4.8,0.,4.8
1979-07-03 12:13:23.960 ,0,0,,0,4.,4.8,0.,4.8,,0,0.,4.8,1.,4.8
1979-07-03 12:13:28.760 ,0,0,,0,0.,4.8,0.,4.8,,0,0.,4.8,1.,4.8
1979-07-03 12:13:33.560 ,0,0,,0,0.,4.8,0.,4.8,,0,0.,4.8,0.,4.8
1979-07-03 12:13:38.360 ,1,0,,0,0.,4.8,0.,4.8,,0,0.,4.8,0.,4.8
1979-07-03 12:13:43.160 ,1,0,,0,0.,4.8,0.,4.8,,0,0.,4.8,1.,4.8
1979-07-03 12:13:47.960 ,1,0,,0,1.,4.8,0.,4.8,,0,0.,4.8,0.,4.8
1979-07-03 12:13:52.760 ,1,0,,0,5.,4.8,0.,4.8,,0,0.,4.8,0.,4.8
1979-07-03 12:13:57.560 ,1,0,,0,3.,4.8,0.,4.8,,0,0.,4.8,0.,4.8
1979-07-03 12:14:02.360 ,1,0,,0,5.,4.8,0.,4.8,,0,0.,4.8,0.,4.8
1979-07-03 12:14:07.160 ,1,0,,0,5.,4.8,0.,4.8,,0,0.,4.8,0.,4.8
1979-07-03 12:14:11.960 ,1,0,,0,3.,4.8,0.,4.8,,0,0.,4.8,0.,4.8
1979-07-03 12:14:16.760 ,1,0,,0,0.,4.8,0.,4.8,,0,0.,4.8,1.,4.8
1979-07-03 12:14:21.560 ,1,0,,0,0.,4.8,0.,4.8,,0,0.,4.8,0.,4.8
1979-07-03 12:14:26.360 ,2,0,,0,0.,4.8,0.,4.8,,0,0.,4.8,0.,4.8
1979-07-03 12:14:31.160 ,2,0,,0,0.,4.8,0.,4.8,,0,0.,4.8,0.,4.8
1979-07-03 12:14:35.960 ,2,0,,0,0.,4.8,0.,4.8,,0,0.,4.8,0.,4.8
1979-07-03 12:14:40.760 ,2,0,,0,5.,4.8,0.,4.8,,0,0.,4.8,0.,4.8
1979-07-03 12:14:45.560 ,2,0,,0,5.,4.8,0.,4.8,,0,0.,4.8,0.,4.8
1979-07-03 12:14:50.360 ,2,0,,0,5.,4.8,0.,4.8,,0,0.,4.8,0.,4.8
1979-07-03 12:14:55.160 ,2,0,,0,8.,4.8,1.,4.8,,0,0.,4.8,0.,4.8
1979-07-03 12:14:59.960 ,2,0,,0,5.,4.8,0.,4.8,,0,0.,4.8,0.,4.8
1979-07-03 12:15:04.760 ,2,0,,0,0.,4.8,0.,4.8,,0,1.,4.8,1.,4.8
1979-07-03 12:15:09.560 ,2,0,,0,0.,4.8,0.,4.8,,0,0.,4.8,0.,4.8
1979-07-03 12:15:14.360 ,3,0,,0,0.,4.8,0.,4.8,,0,0.,4.8,0.,4.8
1979-07-03 12:15:19.160 ,3,0,,0,0.,4.8,0.,4.8,,0,0.,4.8,1.,4.8
1979-07-03 12:15:23.960 ,3,0,,0,1.,4.8,0.,4.8,,0,0.,4.8,2.,4.8
1979-07-03 12:15:28.760 ,3,0,,0,12.,4.8,2.,4.8,,0,0.,4.8,3.,4.8
1979-07-03 12:15:33.560 ,3,0,,0,16.,4.8,0.,4.8,,0,0.,4.8,3.,4.8
1979-07-03 12:15:38.360 ,3,0,,0,12.,4.8,1.,4.8,,0,0.,4.8,2.,4.8
1979-07-03 12:15:43.160 ,3,0,,0,14.,4.8,1.,4.8,,0,0.,4.8,5.,4.8
1979-07-03 12:15:47.960 ,3,0,,0,10.,4.8,0.,4.8,,0,0.,4.8,1.,4.8
1979-07-03 12:15:52.760 ,3,0,,0,0.,4.8,0.,4.8,,0,0.,4.8,1.,4.8
1979-07-03 12:15:57.560 ,3,0,,0,0.,4.8,0.,4.8,,0,0.,4.8,3.,4.8
1979-07-03 12:16:02.360 ,4,0,,0,0.,4.8,0.,4.8,,0,0.,4.8,2.,4.8
1979-07-03 12:16:07.160 ,4,0,,0,0.,4.8,0.,4.8,,0,0.,4.8,5.,4.8
1979-07-03 12:16:11.960 ,4,0,,0,3.,4.8,0.,4.8,,0,0.,4.8,5.,4.8
1979-07-03 12:16:16.760 ,4,0,,0,13.,4.8,0.,4.8,,0,0.,4.8,4.,4.8
1979-07-03 12:16:21.560 ,4,0,,0,15.,4.8,1.,4.8,,0,0.,4.8,6.,4.8
1979-07-03 12:16:26.360 ,4,0,,0,16.,4.8,1.,4.8,,0,0.,4.8,5.,4.8
1979-07-03 12:16:31.160 ,4,0,,0,20.,4.8,2.,4.8,,0,0.,4.8,2.,4.8
1979-07-03 12:16:35.960 ,4,0,,0,15.,4.8,0.,4.8,,0,0.,4.8,6.,4.8
1979-07-03 12:16:40.760 ,4,0,,0,0.,4.8,0.,4.8,,0,0.,4.8,5.,4.8
1979-07-03 12:16:45.560 ,4,0,,0,0.,4.8,0.,4.8,,0,0.,4.8,7.,4.8
1979-07-03 12:16:50.360 ,5,0,,0,0.,4.8,0.,4.8,,0,0.,4.8,9.,4.8
1979-07-03 12:16:55.160 ,5,0,,0,0.,4.8,0.,4.8,,0,0.,4.8,3.,4.8
1979-07-03 12:16:59.960 ,5,0,,0,0.,4.8,0.,4.8,,0,0.,4.8,3.,4.8
1979-07-03 12:17:04.760 ,5,0,,0,15.,4.8,0.,4.8,,0,0.,4.8,5.,4.8
1979-07-03 12:17:09.560 ,5,0,,0,20.,4.8,1.,4.8,,0,0.,4.8,4.,4.8
1979-07-03 12:17:14.360 ,5,0,,0,21.,4.8,1.,4.8,,0,0.,4.8,3.,4.8
1979-07-03 12:17:19.160 ,5,0,,0,16.,4.8,1.,4.8,,0,0.,4.8,6.,4.8
1979-07-03 12:17:23.960 ,5,0,,0,18.,4.8,0.,4.8,,0,0.,4.8,4.,4.8
1979-07-03 12:17:28.760 ,5,0,,0,0.,4.8,0.,4.8,,0,0.,4.8,2.,4.8
1979-07-03 12:17:33.560 ,5,0,,0,0.,4.8,0.,4.8,,0,0.,4.8,10.,4.8
1979-07-03 12:17:38.360 ,6,0,,0,0.,4.8,0.,4.8,,0,0.,4.8,4.,4.8
1979-07-03 12:17:43.160 ,6,0,,0,0.,4.8,0.,4.8,,0,0.,4.8,6.,4.8
1979-07-03 12:17:47.960 ,6,0,,0,0.,4.8,0.,4.8,,0,0.,4.8,3.,4.8
1979-07-03 12:17:52.760 ,6,0,,0,15.,4.8,2.,4.8,,0,0.,4.8,2.,4.8
1979-07-03 12:17:57.560 ,6,0,,0,14.,4.8,0.,4.8,,0,0.,4.8,0.,4.8
1979-07-03 12:18:02.360 ,6,0,,0,9.,4.8,0.,4.8,,0,0.,4.8,3.,4.8
1979-07-03 12:18:07.160 ,6,0,,0,18.,4.8,1.,4.8,,0,0.,4.8,1.,4.8
1979-07-03 12:18:11.960 ,6,0,,0,10.,4.8,0.,4.8,,0,0.,4.8,3.,4.8
1979-07-03 12:18:16.760 ,6,0,,0,0.,4.8,0.,4.8,,0,0.,4.8,1.,4.8
1979-07-03 12:18:21.560 ,6,0,,0,0.,4.8,0.,4.8,,0,0.,4.8,3.,4.8
1979-07-03 12:18:26.360 ,7,0,,0,0.,4.8,0.,4.8,,0,0.,4.8,3.,4.8
1979-07-03 12:18:31.160 ,7,0,,0,0.,4.8,0.,4.8,,0,0.,4.8,4.,4.8
1979-07-03 12:18:35.960 ,7,0,,0,1.,4.8,0.,4.8,,0,0.,4.8,0.,4.8
1979-07-03 12:18:40.760 ,7,0,,0,16.,4.8,0.,4.8,,0,0.,4.8,0.,4.8
1979-07-03 12:18:45.560 ,7,0,,0,18.,4.8,0.,4.8,,0,0.,4.8,0.,4.8
1979-07-03 12:18:50.360 ,7,0,,0,16.,4.8,0.,4.8,,0,0.,4.8,0.,4.8
1979-07-03 12:18:55.160 ,7,0,,0,17.,4.8,0.,4.8,,0,0.,4.8,0.,4.8
1979-07-03 12:18:59.960 ,7,0,,0,8.,4.8,0.,4.8,,0,0.,4.8,0.,4.8
1979-07-03 12:19:04.760 ,7,0,,0,0.,4.8,0.,4.8,,0,0.,4.8,0.,4.8
1979-07-03 12:19:09.560 ,7,0,,0,0.,4.8,0.,4.8,,0,0.,4.8,0.,4.8
1979-07-03 12:19:14.360 ,3,1,,0,0.,4.8,0.,4.8,,0,0.,4.8,0.,4.8
1979-07-03 12:19:19.160 ,3,1,,0,0.,4.8,0.,4.8,,0,0.,4.8,4.,4.8
1979-07-03 12:19:23.960 ,3,1,,0,1.,4.8,0.,4.8,,0,0.,4.8,5.,4.8
1979-07-03 12:19:28.760 ,3,1,,0,10.,4.8,0.,4.8,,0,0.,4.8,7.,4.8
1979-07-03 12:19:33.560 ,3,1,,0,11.,4.8,0.,4.8,,0,0.,4.8,2.,4.8
1979-07-03 12:19:38.360 ,0,1,,0,6.,4.8,1.,4.8,,0,0.,4.8,1.,4.8
1979-07-03 12:19:43.160 ,0,1,,0,7.,4.8,0.,4.8,,0,0.,4.8,0.,4.8
1979-07-03 12:19:47.960 ,0,1,,0,6.,4.8,0.,4.8,,0,0.,4.8,0.,4.8
1979-07-03 12:19:52.760 ,0,1,,0,0.,4.8,0.,4.8,,0,0.,4.8,0.,4.8
1979-07-03 12:19:57.560 ,0,1,,0,0.,4.8,0.,4.8,,0,0.,4.8,0.,4.8
1979-07-03 12:20:02.360 ,4,1,,0,0.,4.8,0.,4.8,,0,0.,4.8,0.,4.8
1979-07-03 12:20:07.160 ,4,1,,0,0.,4.8,0.,4.8,,0,0.,4.8,0.,4.8
1979-07-03 12:20:11.960 ,4,1,,0,0.,4.8,0.,4.8,,0,0.,4.8,0.,4.8
1979-07-03 12:20:16.760 ,4,1,,0,12.,4.8,2.,4.8,,0,1.,4.8,2.,4.8
1979-07-03 12:20:21.560 ,4,1,,0,18.,4.8,0.,4.8,,0,0.,4.8,5.,4.8
1979-07-03 12:20:26.360 ,7,1,,0,15.,4.8,1.,4.8,,0,0.,4.8,2.,4.8
1979-07-03 12:20:31.160 ,7,1,,0,12.,4.8,1.,4.8,,0,0.,4.8,3.,4.8
1979-07-03 12:20:35.960 ,7,1,,0,11.,4.8,2.,4.8,,0,0.,4.8,3.,4.8
1979-07-03 12:20:40.760 ,7,1,,0,0.,4.8,0.,4.8,,0,0.,4.8,0.,4.8
1979-07-03 12:20:45.560 ,7,1,,0,0.,4.8,0.,4.8,,0,0.,4.8,0.,4.8
1979-07-03 12:20:50.360 ,3,1,,0,0.,4.8,0.,4.8,,0,0.,4.8,1.,4.8
1979-07-03 12:20:55.160 ,3,1,,0,0.,4.8,0.,4.8,,0,0.,4.8,3.,4.8
1979-07-03 12:20:59.960 ,3,1,,0,0.,4.8,0.,4.8,,0,0.,4.8,3.,4.8
1979-07-03 12:21:04.760 ,3,1,,0,11.,4.8,1.,4.8,,0,0.,4.8,3.,4.8
1979-07-03 12:21:09.560 ,3,1,,0,11.,4.8,0.,4.8,,0,0.,4.8,4.,4.8
1979-07-03 12:21:14.360 ,0,1,,0,7.,4.8,0.,4.8,,0,0.,4.8,0.,4.8
1979-07-03 12:21:19.160 ,0,1,,0,11.,4.8,0.,4.8,,0,0.,4.8,1.,4.8
1979-07-03 12:21:23.960 ,0,1,,0,3.,4.8,0.,4.8,,0,0.,4.8,0.,4.8
1979-07-03 12:21:28.760 ,0,1,,0,0.,4.8,0.,4.8,,0,0.,4.8,0.,4.8
1979-07-03 12:21:33.560 ,0,1,,0,0.,4.8,0.,4.8,,0,0.,4.8,0.,4.8
1979-07-03 12:21:38.360 ,4,1,,0,0.,4.8,0.,4.8,,0,0.,4.8,0.,4.8
1979-07-03 12:21:43.160 ,4,1,,0,0.,4.8,0.,4.8,,0,0.,4.8,0.,4.8
1979-07-03 12:21:47.960 ,4,1,,0,1.,4.8,0.,4.8,,0,0.,4.8,0.,4.8
1979-07-03 12:21:52.760 ,4,1,,0,7.,4.8,1.,4.8,,0,0.,4.8,1.,4.8
1979-07-03 12:21:57.560 ,4,1,,0,13.,4.8,0.,4.8,,0,0.,4.8,1.,4.8
1979-07-03 12:22:02.360 ,7,1,,0,15.,4.8,0.,4.8,,0,0.,4.8,2.,4.8
1979-07-03 12:22:07.160 ,7,1,,0,10.,4.8,0.,4.8,,0,0.,4.8,4.,4.8
1979-07-03 12:22:11.960 ,7,1,,0,4.,4.8,0.,4.8,,0,0.,4.8,3.,4.8
1979-07-03 12:22:16.760 ,7,1,,0,0.,4.8,0.,4.8,,0,0.,4.8,0.,4.8
1979-07-03 12:22:21.560 ,7,1,,0,0.,4.8,0.,4.8,,0,0.,4.8,1.,4.8
1979-07-03 12:22:26.360 ,3,1,,0,0.,4.8,0.,4.8,,0,0.,4.8,3.,4.8
1979-07-03 12:22:31.160 ,3,1,,0,0.,4.8,0.,4.8,,0,0.,4.8,3.,4.8
1979-07-03 12:22:35.960 ,3,1,,0,0.,4.8,0.,4.8,,0,0.,4.8,8.,4.8
1979-07-03 12:22:40.760 ,3,1,,0,7.,4.8,3.,4.8,,0,0.,4.8,3.,4.8
1979-07-03 12:22:45.560 ,3,1,,0,12.,4.8,1.,4.8,,0,0.,4.8,3.,4.8
1979-07-03 12:22:50.360 ,0,1,,0,12.,4.8,0.,4.8,,0,0.,4.8,1.,4.8
1979-07-03 12:22:55.160 ,0,1,,0,5.,4.8,0.,4.8,,0,0.,4.8,0.,4.8
1979-07-03 12:22:59.960 ,0,1,,0,4.,4.8,0.,4.8,,0,0.,4.8,0.,4.8
1979-07-03 12:23:04.760 ,0,1,,0,0.,4.8,0.,4.8,,0,0.,4.8,0.,4.8
1979-07-03 12:23:09.560 ,0,1,,0,0.,4.8,0.,4.8,,0,0.,4.8,0.,4.8
1979-07-03 12:23:14.360 ,4,1,,0,0.,4.8,1.,4.8,,0,0.,4.8,0.,4.8
1979-07-03 12:23:19.160 ,4,1,,0,0.,4.8,0.,4.8,,0,0.,4.8,0.,4.8
1979-07-03 12:23:23.960 ,4,1,,0,0.,4.8,0.,4.8,,0,0.,4.8,0.,4.8
1979-07-03 12:23:28.760 ,4,1,,0,11.,4.8,0.,4.8,,0,0.,4.8,1.,4.8
1979-07-03 12:23:33.560 ,4,1,,0,13.,4.8,1.,4.8,,0,0.,4.8,6.,4.8
1979-07-03 12:23:38.360 ,7,1,,0,11.,4.8,1.,4.8,,0,0.,4.8,7.,4.8
1979-07-03 12:23:43.160 ,7,1,,0,15.,4.8,0.,4.8,,0,0.,4.8,3.,4.8
1979-07-03 12:23:47.960 ,7,1,,0,14.,4.8,1.,4.8,,0,0.,4.8,1.,4.8
1979-07-03 12:23:52.760 ,7,1,,0,0.,4.8,0.,4.8,,0,0.,4.8,1.,4.8
1979-07-03 12:23:57.560 ,7,1,,0,0.,4.8,0.,4.8,,0,0.,4.8,0.,4.8
1979-07-03 12:24:02.360 ,3,1,,0,0.,4.8,0.,4.8,,0,0.,4.8,3.,4.8
1979-07-03 12:24:07.160 ,3,1,,0,0.,4.8,0.,4.8,,0,0.,4.8,3.,4.8
1979-07-03 12:24:11.960 ,3,1,,0,2.,4.8,0.,4.8,,0,0.,4.8,3.,4.8
1979-07-03 12:24:16.760 ,3,1,,0,7.,4.8,0.,4.8,,0,0.,4.8,3.,4.8
1979-07-03 12:24:21.560 ,3,1,,0,8.,4.8,0.,4.8,,0,0.,4.8,2.,4.8
1979-07-03 12:24:26.360 ,0,1,,0,7.,4.8,0.,4.8,,0,0.,4.8,0.,4.8
1979-07-03 12:24:31.160 ,0,1,,0,5.,4.8,0.,4.8,,0,0.,4.8,0.,4.8
1979-07-03 12:24:35.960 ,0,1,,0,4.,4.8,0.,4.8,,0,0.,4.8,0.,4.8
1979-07-03 12:24:40.760 ,0,1,,0,0.,4.8,0.,4.8,,0,0.,4.8,0.,4.8
1979-07-03 12:24:45.560 ,0,1,,0,0.,4.8,0.,4.8,,0,0.,4.8,0.,4.8
1979-07-03 12:24:50.360 ,4,1,,0,0.,4.8,0.,4.8,,0,0.,4.8,0.,4.8
1979-07-03 12:24:55.160 ,4,1,,0,0.,4.8,0.,4.8,,0,0.,4.8,0.,4.8
1979-07-03 12:24:59.960 ,4,1,,0,1.,4.8,0.,4.8,,0,0.,4.8,0.,4.8
1979-07-03 12:25:04.760 ,4,1,,0,6.,4.8,2.,4.8,,0,0.,4.8,2.,4.8
1979-07-03 12:25:09.560 ,4,1,,0,13.,4.8,0.,4.8,,0,0.,4.8,4.,4.8
1979-07-03 12:25:14.360 ,7,1,,0,10.,4.8,0.,4.8,,0,0.,4.8,4.,4.8
1979-07-03 12:25:19.160 ,7,1,,0,18.,4.8,2.,4.8,,0,0.,4.8,5.,4.8
1979-07-03 12:25:23.960 ,7,1,,0,6.,4.8,0.,4.8,,0,0.,4.8,1.,4.8
1979-07-03 12:25:28.760 ,7,1,,0,0.,4.8,0.,4.8,,0,0.,4.8,0.,4.8
1979-07-03 12:25:33.560 ,7,1,,0,0.,4.8,0.,4.8,,0,0.,4.8,0.,4.8
1979-07-03 12:25:38.360 ,3,1,,0,0.,4.8,0.,4.8,,0,0.,4.8,1.,4.8
1979-07-03 12:25:43.160 ,3,1,,0,0.,4.8,0.,4.8,,0,0.,4.8,1.,4.8
1979-07-03 12:25:47.960 ,3,1,,0,4.,4.8,0.,4.8,,0,0.,4.8,6.,4.8
1979-07-03 12:25:52.760 ,3,1,,0,14.,4.8,3.,4.8,,0,0.,4.8,3.,4.8
1979-07-03 12:25:57.560 ,3,1,,0,9.,4.8,1.,4.8,,0,1.,4.8,4.,4.8
1979-07-03 12:26:02.360 ,0,1,,0,4.,4.8,1.,4.8,,0,0.,4.8,0.,4.8
1979-07-03 12:26:07.160 ,0,1,,0,2.,4.8,0.,4.8,,0,0.,4.8,0.,4.8
1979-07-03 12:26:11.960 ,0,1,,0,4.,4.8,0.,4.8,,0,0.,4.8,0.,4.8
1979-07-03 12:26:16.760 ,0,1,,0,0.,4.8,0.,4.8,,0,0.,4.8,1.,4.8
1979-07-03 12:26:21.560 ,0,1,,0,0.,4.8,0.,4.8,,0,0.,4.8,0.,4.8
1979-07-03 12:26:26.360 ,4,1,,0,0.,4.8,0.,4.8,,0,0.,4.8,0.,4.8
1979-07-03 12:26:31.160 ,4,1,,0,0.,4.8,0.,4.8,,0,0.,4.8,0.,4.8
1979-07-03 12:26:35.960 ,4,1,,0,0.,4.8,0.,4.8,,0,0.,4.8,0.,4.8
1979-07-03 12:26:40.760 ,4,1,,0,11.,4.8,0.,4.8,,0,0.,4.8,0.,4.8
1979-07-03 12:26:45.560 ,4,1,,0,8.,4.8,0.,4.8,,0,0.,4.8,3.,4.8
1979-07-03 12:26:50.360 ,7,1,,0,12.,4.8,3.,4.8,,0,0.,4.8,5.,4.8
1979-07-03 12:26:55.160 ,7,1,,0,10.,4.8,2.,4.8,,0,0.,4.8,3.,4.8
1979-07-03 12:26:59.960 ,7,1,,0,7.,4.8,1.,4.8,,0,0.,4.8,2.,4.8
1979-07-03 12:27:04.760 ,7,1,,0,0.,4.8,0.,4.8,,0,0.,4.8,0.,4.8
1979-07-03 12:27:09.560 ,7,1,,0,0.,4.8,0.,4.8,,0,0.,4.8,0.,4.8
1979-07-03 12:27:14.360 ,3,1,,0,0.,4.8,0.,4.8,,0,0.,4.8,1.,4.8
1979-07-03 12:27:19.160 ,3,1,,0,0.,4.8,0.,4.8,,0,0.,4.8,4.,4.8
1979-07-03 12:27:23.960 ,3,1,,0,0.,4.8,0.,4.8,,0,0.,4.8,4.,4.8
1979-07-03 12:27:28.760 ,3,1,,0,9.,4.8,0.,4.8,,0,0.,4.8,5.,4.8
1979-07-03 12:27:33.560 ,3,1,,0,5.,4.8,0.,4.8,,0,0.,4.8,1.,4.8
1979-07-03 12:27:38.360 ,0,1,,0,10.,4.8,0.,4.8,,0,0.,4.8,0.,4.8
1979-07-03 12:27:43.160 ,0,1,,0,5.,4.8,0.,4.8,,0,0.,4.8,0.,4.8
1979-07-03 12:27:47.960 ,0,1,,0,6.,4.8,0.,4.8,,0,0.,4.8,0.,4.8
1979-07-03 12:27:52.760 ,0,1,,0,0.,4.8,0.,4.8,,0,0.,4.8,0.,4.8
1979-07-03 12:27:57.560 ,0,1,,0,0.,4.8,0.,4.8,,0,0.,4.8,0.,4.8
1979-07-03 12:28:02.360 ,4,1,,0,0.,4.8,0.,4.8,,0,0.,4.8,0.,4.8
1979-07-03 12:28:07.160 ,4,1,,0,0.,4.8,0.,4.8,,0,0.,4.8,0.,4.8
1979-07-03 12:28:11.960 ,4,1,,0,1.,4.8,0.,4.8,,0,0.,4.8,0.,4.8
1979-07-03 12:28:16.760 ,4,1,,0,11.,4.8,0.,4.8,,0,0.,4.8,1.,4.8
1979-07-03 12:28:21.560 ,4,1,,0,17.,4.8,1.,4.8,,0,0.,4.8,3.,4.8
1979-07-03 12:28:26.360 ,7,1,,0,10.,4.8,1.,4.8,,0,0.,4.8,5.,4.8
1979-07-03 12:28:31.160 ,7,1,,0,7.,4.8,2.,4.8,,0,0.,4.8,4.,4.8
1979-07-03 12:28:35.960 ,7,1,,0,5.,4.8,0.,4.8,,0,0.,4.8,2.,4.8
1979-07-03 12:28:40.760 ,7,1,,0,0.,4.8,0.,4.8,,0,0.,4.8,1.,4.8
1979-07-03 12:28:45.560 ,7,1,,0,0.,4.8,0.,4.8,,0,0.,4.8,0.,4.8
1979-07-03 12:28:50.360 ,3,1,,0,0.,4.8,0.,4.8,,0,0.,4.8,0.,4.8
1979-07-03 12:28:55.160 ,3,1,,0,0.,4.8,0.,4.8,,0,0.,4.8,5.,4.8
1979-07-03 12:28:59.960 ,3,1,,0,4.,4.8,1.,4.8,,0,0.,4.8,2.,4.8
1979-07-03 12:29:04.760 ,3,1,,0,10.,4.8,1.,4.8,,0,0.,4.8,9.,4.8
1979-07-03 12:29:09.560 ,3,1,,0,9.,4.8,0.,4.8,,0,0.,4.8,1.,4.8
1979-07-03 12:29:14.360 ,0,1,,0,7.,4.8,0.,4.8,,0,0.,4.8,0.,4.8
1979-07-03 12:29:19.160 ,0,1,,0,2.,4.8,0.,4.8,,0,0.,4.8,0.,4.8
1979-07-03 12:29:23.960 ,0,1,,0,8.,4.8,0.,4.8,,0,0.,4.8,0.,4.8
1979-07-03 12:29:28.760 ,0,1,,0,0.,4.8,0.,4.8,,0,0.,4.8,0.,4.8
1979-07-03 12:29:33.560 ,0,1,,0,0.,4.8,0.,4.8,,0,0.,4.8,0.,4.8
1979-07-03 12:29:38.360 ,0,0,,0,0.,4.8,0.,4.8,,0,0.,4.8,0.,4.8
1979-07-03 12:29:43.160 ,0,0,,0,0.,4.8,0.,4.8,,0,0.,4.8,0.,4.8
1979-07-03 12:29:47.960 ,0,0,,0,2.,4.8,0.,4.8,,0,0.,4.8,0.,4.8
1979-07-03 12:29:52.760 ,0,0,,0,9.,4.8,0.,4.8,,0,0.,4.8,0.,4.8
1979-07-03 12:29:57.560 ,0,0,,0,11.,4.8,0.,4.8,,0,0.,4.8,0.,4.8
1979-07-03 12:30:02.360 ,0,0,,0,8.,4.8,1.,4.8,,0,0.,4.8,4.,4.8
1979-07-03 12:30:07.160 ,0,0,,0,10.,4.8,0.,4.8,,0,0.,4.8,1.,4.8
1979-07-03 12:30:11.960 ,0,0,,0,12.,4.8,0.,4.8,,0,0.,4.8,2.,4.8
1979-07-03 12:30:16.760 ,0,0,,0,0.,4.8,0.,4.8,,0,0.,4.8,0.,4.8
1979-07-03 12:30:21.560 ,0,0,,0,0.,4.8,0.,4.8,,0,0.,4.8,0.,4.8
1979-07-03 12:30:26.360 ,5,0,,0,0.,4.8,0.,4.8,,0,0.,4.8,0.,4.8
1979-07-03 12:30:31.160 ,5,0,,0,0.,4.8,0.,4.8,,0,0.,4.8,1.,4.8
1979-07-03 12:30:35.960 ,5,0,,0,3.,4.8,0.,4.8,,0,0.,4.8,0.,4.8
1979-07-03 12:30:40.760 ,5,0,,0,9.,4.8,0.,4.8,,0,0.,4.8,3.,4.8
1979-07-03 12:30:45.560 ,5,0,,0,9.,4.8,0.,4.8,,0,0.,4.8,6.,4.8
1979-07-03 12:30:50.360 ,5,0,,0,9.,4.8,1.,4.8,,0,0.,4.8,6.,4.8